カタログに戻る

ARIANE 3 DEB

運用中GTO
NORAD 48347·DEBRIS·🇫🇷 France

打ち上げ Aug 4, 1984 から Guiana Space Centre

Loading…

TLE

古いSource: Space-Track

元期: Sep 10, 2026, 03:39 UTC

1 48347U 84081G   26253.15217338 -.00000405  00000-0  00000+0 0  9994
2 48347   6.2337 335.4252 7089054  54.9814 352.2008  2.08063302 97412

AllMySatでARIANE 3 DEBをリアルタイム追跡

Download on the App Store